When you browse on this site, cookies collect data to enhance your experience and personalize the content and advertising you see.
Visit our Privacy Policy to learn more. By continuing to use the site, you agree to this use of cookies and data.
  • In Portugal
  • List of Countries
  • For 7 days
  • Water Temperature
  • Satellite Maps
  • Weather Map
  • Weather Widgets
  • user-avatar
    Login

    Hourly Weather Koniecwald

    Today, 19 February, Tuesday

    Time Temperature Precipitation Wind Pressure Humidity
    00:00 +3°C° 0 mm 3 mps 759 mmHg 85%
    01:00 +2°C° 0 mm 3 mps 758 mmHg 87%
    02:00 +2°C° 0 mm 3 mps 758 mmHg 86%
    03:00 +2°C° 0 mm 3 mps 757 mmHg 86%
    04:00 +2°C° 0 mm 3 mps 756 mmHg 85%
    05:00 +1°C° 0 mm 4 mps 756 mmHg 85%
    06:00 0°C° 0 mm 4 mps 756 mmHg 85%
    07:00 0°C° 0 mm 4 mps 755 mmHg 85%
    08:00 +2°C° 0 mm 5 mps 755 mmHg 80%
    09:00 +3°C° 0 mm 5 mps 755 mmHg 74%
    10:00 +4°C° 0 mm 6 mps 755 mmHg 69%
    11:00 +5°C° 0 mm 6 mps 754 mmHg 68%
    12:00 +7°C° 0 mm 6 mps 754 mmHg 67%
    13:00 +8°C° 0 mm 6 mps 754 mmHg 65%
    14:00 +8°C° 0.1 mm 6 mps 754 mmHg 69%
    15:00 +8°C° 0.1 mm 5 mps 754 mmHg 73%
    16:00 +7°C° 0.1 mm 5 mps 754 mmHg 78%
    17:00 +7°C° 0.1 mm 5 mps 754 mmHg 79%
    18:00 +6°C° 0.1 mm 4 mps 754 mmHg 80%
    19:00 +5°C° 0.1 mm 4 mps 754 mmHg 81%
    20:00 +5°C° 0 mm 4 mps 754 mmHg 81%
    21:00 +5°C° 0 mm 4 mps 754 mmHg 82%
    22:00 +3°C° 0 mm 5 mps 754 mmHg 82%
    23:00 +3°C° 0.1 mm 5 mps 754 mmHg 82%

    Tomorrow, 20 February, Wednesday

    Time Temperature Precipitation Wind Pressure Humidity
    00:00 +3°C° 0.1 mm 5 mps 754 mmHg 81%
    01:00 +3°C° 0.1 mm 5 mps 754 mmHg 81%
    02:00 +3°C° 0.1 mm 5 mps 754 mmHg 81%
    03:00 +3°C° 0.1 mm 5 mps 754 mmHg 80%
    04:00 +3°C° 0.1 mm 5 mps 754 mmHg 79%
    05:00 +3°C° 0.1 mm 5 mps 754 mmHg 79%
    06:00 +3°C° 0.1 mm 6 mps 754 mmHg 78%
    07:00 +3°C° 0.1 mm 6 mps 755 mmHg 78%
    08:00 +3°C° 0 mm 6 mps 755 mmHg 75%
    09:00 +3°C° 0 mm 7 mps 756 mmHg 72%
    10:00 +4°C° 0 mm 8 mps 756 mmHg 69%
    11:00 +4°C° 0 mm 8 mps 757 mmHg 69%
    12:00 +4°C° 0 mm 8 mps 757 mmHg 68%
    13:00 +4°C° 0 mm 8 mps 758 mmHg 67%
    14:00 +4°C° 0 mm 7 mps 758 mmHg 69%
    15:00 +4°C° 0 mm 7 mps 758 mmHg 70%
    16:00 +4°C° 0 mm 6 mps 759 mmHg 72%
    17:00 +3°C° 0 mm 5 mps 759 mmHg 74%
    18:00 +3°C° 0 mm 5 mps 760 mmHg 77%
    19:00 +4°C° 0 mm 4 mps 760 mmHg 80%
    20:00 +3°C° 0 mm 4 mps 761 mmHg 82%
    21:00 +3°C° 0 mm 3 mps 761 mmHg 84%
    22:00 +4°C° 0 mm 2 mps 761 mmHg 86%
    23:00 +3°C° 0 mm 2 mps 761 mmHg 88%

    Day after tomorrow, 21 February, Thursday

    Time Temperature Precipitation Wind Pressure Humidity
    00:00 +3°C° 0 mm 2 mps 761 mmHg 90%
    01:00 +3°C° 0 mm 2 mps 761 mmHg 92%
    02:00 +3°C° 0.1 mm 2 mps 761 mmHg 93%
    03:00 +3°C° 0.1 mm 2 mps 761 mmHg 94%
    04:00 +3°C° 0.1 mm 2 mps 761 mmHg 95%
    05:00 +3°C° 0.5 mm 2 mps 761 mmHg 96%
    06:00 +4°C° 0.5 mm 2 mps 761 mmHg 96%
    07:00 +4°C° 0.5 mm 2 mps 760 mmHg 97%
    08:00 +4°C° 0.5 mm 2 mps 760 mmHg 95%
    09:00 +5°C° 0.5 mm 2 mps 760 mmHg 94%
    10:00 +4°C° 0.5 mm 3 mps 760 mmHg 93%
    11:00 +4°C° 0.6 mm 3 mps 760 mmHg 93%
    12:00 +6°C° 0.6 mm 2 mps 760 mmHg 92%
    13:00 +6°C° 0.6 mm 2 mps 760 mmHg 92%
    14:00 +6°C° 0.1 mm 2 mps 760 mmHg 91%
    15:00 +6°C° 0.1 mm 2 mps 760 mmHg 91%
    16:00 +6°C° 0.1 mm 2 mps 759 mmHg 90%
    17:00 +6°C° 0.4 mm 2 mps 760 mmHg 92%
    18:00 +5°C° 0.4 mm 2 mps 760 mmHg 93%
    19:00 +5°C° 0.4 mm 2 mps 760 mmHg 95%
    20:00 +3°C° 1 mm 3 mps 761 mmHg 93%
    21:00 0°C° 1 mm 5 mps 761 mmHg 90%
    22:00 -2°C° 1 mm 6 mps 762 mmHg 88%
    23:00 -3°C° 0 mm 6 mps 763 mmHg 86%

    22 February, Friday

    Time Temperature Precipitation Wind Pressure Humidity
    00:00 -3°C° 0 mm 6 mps 764 mmHg 84%
    01:00 -4°C° 0 mm 5 mps 765 mmHg 82%
    02:00 -4°C° 0 mm 5 mps 766 mmHg 79%
    03:00 -5°C° 0 mm 5 mps 767 mmHg 75%
    04:00 -5°C° 0 mm 5 mps 768 mmHg 72%
    05:00 -5°C° 0 mm 5 mps 769 mmHg 70%
    06:00 -4°C° 0 mm 4 mps 770 mmHg 69%
    07:00 -4°C° 0 mm 4 mps 771 mmHg 67%
    08:00 -4°C° 0 mm 4 mps 772 mmHg 63%
    09:00 -4°C° 0 mm 4 mps 773 mmHg 59%
    10:00 -3°C° 0 mm 4 mps 774 mmHg 55%
    11:00 -3°C° 0 mm 4 mps 774 mmHg 52%
    12:00 -2°C° 0 mm 4 mps 774 mmHg 50%
    13:00 -1°C° 0 mm 3 mps 775 mmHg 47%
    14:00 -1°C° 0 mm 3 mps 775 mmHg 49%
    15:00 -2°C° 0 mm 3 mps 776 mmHg 50%
    16:00 -2°C° 0 mm 3 mps 776 mmHg 52%
    17:00 -2°C° 0 mm 3 mps 776 mmHg 56%
    18:00 -3°C° 0 mm 2 mps 776 mmHg 60%
    19:00 -3°C° 0 mm 2 mps 777 mmHg 64%
    20:00 -1°C° 0 mm 1 mps 777 mmHg 63%
    21:00 -1°C° 0 mm 1 mps 777 mmHg 63%
    22:00 -1°C° 0 mm 1 mps 777 mmHg 62%
    23:00 -1°C° 0 mm 1 mps 777 mmHg 62%

    23 February, Saturday

    Time Temperature Precipitation Wind Pressure Humidity
    00:00 -1°C° 0 mm 1 mps 777 mmHg 62%
    01:00 -2°C° 0 mm 0 mps 777 mmHg 62%
    02:00 -1°C° 0 mm 1 mps 777 mmHg 63%
    03:00 -1°C° 0 mm 1 mps 777 mmHg 64%
    04:00 -1°C° 0 mm 1 mps 777 mmHg 65%
    05:00 -1°C° 0 mm 1 mps 777 mmHg 65%
    06:00 -1°C° 0 mm 1 mps 776 mmHg 66%
    07:00 -1°C° 0 mm 1 mps 776 mmHg 67%
    08:00 0°C° 0 mm 1 mps 776 mmHg 62%
    09:00 +1°C° 0 mm 1 mps 776 mmHg 58%
    10:00 +1°C° 0 mm 1 mps 776 mmHg 54%
    11:00 +1°C° 0 mm 2 mps 776 mmHg 51%
    12:00 +1°C° 0 mm 2 mps 776 mmHg 48%
    13:00 +2°C° 0 mm 2 mps 775 mmHg 45%
    14:00 +2°C° 0 mm 2 mps 775 mmHg 47%
    15:00 +2°C° 0 mm 2 mps 774 mmHg 49%
    16:00 +3°C° 0 mm 1 mps 774 mmHg 51%
    17:00 +2°C° 0 mm 1 mps 774 mmHg 55%
    18:00 +2°C° 0 mm 1 mps 774 mmHg 58%
    19:00 +2°C° 0 mm 1 mps 774 mmHg 62%
    20:00 +2°C° 0 mm 1 mps 774 mmHg 65%
    21:00 +2°C° 0 mm 1 mps 774 mmHg 68%
    22:00 +2°C° 0 mm 1 mps 774 mmHg 71%
    23:00 +1°C° 0 mm 1 mps 774 mmHg 73%

    24 February, Sunday

    Time Temperature Precipitation Wind Pressure Humidity
    00:00 +1°C° 0 mm 1 mps 774 mmHg 75%
    01:00 +1°C° 0 mm 1 mps 774 mmHg 77%
    02:00 +1°C° 0 mm 1 mps 774 mmHg 78%
    03:00 +1°C° 0 mm 1 mps 774 mmHg 80%
    04:00 +1°C° 0 mm 2 mps 774 mmHg 81%
    05:00 +1°C° 0 mm 2 mps 774 mmHg 82%
    06:00 +1°C° 0 mm 2 mps 774 mmHg 83%
    07:00 +2°C° 0 mm 1 mps 774 mmHg 85%
    08:00 +1°C° 0 mm 2 mps 775 mmHg 82%
    09:00 +2°C° 0 mm 2 mps 775 mmHg 79%
    10:00 +3°C° 0 mm 2 mps 775 mmHg 77%
    11:00 +4°C° 0 mm 2 mps 775 mmHg 75%
    12:00 +5°C° 0 mm 2 mps 776 mmHg 73%
    13:00 +5°C° 0 mm 2 mps 776 mmHg 72%
    14:00 +5°C° 0 mm 2 mps 775 mmHg 74%
    15:00 +5°C° 0 mm 2 mps 775 mmHg 77%
    16:00 +5°C° 0 mm 2 mps 775 mmHg 79%
    17:00 +4°C° 0 mm 2 mps 774 mmHg 83%
    18:00 +3°C° 0 mm 2 mps 774 mmHg 86%
    19:00 +2°C° 0 mm 2 mps 774 mmHg 90%
    20:00 +1°C° 0 mm 3 mps 774 mmHg 91%
    21:00 +1°C° 0 mm 3 mps 774 mmHg 92%
    22:00 +1°C° 0 mm 3 mps 774 mmHg 93%
    23:00 +1°C° 0 mm 3 mps 774 mmHg 93%
    Show more